Location: Roanoke
(37.2710°N, 79.9420°W)
Time: 21:35:28
(UTC-05:00)

S-56A Canister/Altair - Pass Details

Date: 20 November 2019
Orbit: 633 x 2499 km, 38.9° (Epoch: 10 December)

Event Time Altitude Azimuth Distance (km) Brightness Sun altitude
Rises 17:42:26 0° 255° (WSW) 5,378 14.4 -7.5°
Reaches altitude 10° 17:46:26 10° 255° (WSW) 4,102 13.0 -8.2°
Maximum altitude 17:56:43 90° 166° (SSE) 1,277 8.6 -10.2°
Enters shadow 18:02:36 14° 78° (ENE) 2,467 9.4 -11.3°
Drops below altitude 10° 18:03:19 10° 78° (ENE) 2,710 - -11.4°
Sets 18:05:29 0° 78° (ENE) 3,483 - -11.8°
